Klar, aber dunstig mit einigen Cirrus-Wolken
Wechselnd bewölkt
Wechselnd bewölkt
Klar mit einigen niederen Wolken
Klar mit einigen niederen Wolken
Klar mit einigen niederen Wolken
Wechselhaft, wahrscheinlich mit Gewitterwolken
(°C)
10°
10°
10°
10°
12°
12°
15°
15°
17°
17°
19°
19°
20°
20°
(°C)
10°
10°
12°
15°
18°
19°
21°
ONO
O
OSO
SO
S
SSW
SW
(km/h)
1-5
3-7
3-6
2-5
2-5
3-6
4-9
(mm)
0
0
0
0
0
0
0
(%)
0
0
0
0
5
5
5

Sonnenhöhe

/ -3°
sun-icon
UV 6
06:09
20:58
Letztes Viertel (267°)
02:07
12:53

METAR für Ioannina (LGIO)

Zeit Bedingungen Temperatur/
Taupunkt
Wind Sichtweite Wetter Wolken Druck Änderung Roh
10°C / 10°C variable 0kt - 1013 - LGIO 300220Z AUTO 00000KT //// // ////// 10/10 Q1013 RE//
10°C / 10°C 1kt - 1013 - LGIO 300150Z AUTO VRB01KT //// // ////// 10/10 Q1013 RE//
10°C / 10°C 1kt - 1013 - LGIO 300120Z AUTO VRB01KT //// // ////// 10/10 Q1013 RE//
10°C / 10°C variable 0kt - 1013 - LGIO 300050Z AUTO 00000KT //// // ////// 10/10 Q1013 RE//
11°C / 11°C 2kt - 1013 - LGIO 300020Z AUTO VRB02KT //// // ////// 11/11 Q1013 RE//
11°C / 11°C 1kt - 1013 - LGIO 292350Z AUTO VRB01KT //// // ////// 11/11 Q1013 RE//
11°C / 11°C 2kt - 1013 - LGIO 292320Z AUTO VRB02KT //// // ////// 11/11 Q1013 RE//
13°C / 13°C 1kt - 1013 - LGIO 292250Z AUTO VRB01KT //// // ////// 13/13 Q1013 RE//
12°C / 12°C 1kt - 1013 - LGIO 292220Z AUTO VRB01KT //// // ////// 12/12 Q1013 RE//
13°C / 13°C 2kt - 1013 - LGIO 292150Z AUTO VRB02KT //// // ////// 13/13 Q1013 RE//
13°C / 13°C 1kt - 1013 - LGIO 292120Z AUTO VRB01KT //// // ////// 13/13 Q1013 RE//
14°C / 12°C 2kt - 1013 - LGIO 292050Z AUTO VRB02KT //// // ////// 14/12 Q1013 RE//
14°C / 13°C 2kt - 1014 - LGIO 292020Z AUTO VRB02KT //// // ////// 14/13 Q1014 RE//
14°C / 12°C 2kt - 1014 - LGIO 291950Z AUTO VRB02KT //// // ////// 14/12 Q1014 RE//
15°C / 13°C 2kt - 1014 - LGIO 291920Z AUTO VRB02KT //// // ////// 15/13 Q1014 RE//
VFR 16°C / 13°C 280º 1kt 9700m - Few Clouds 3500ft
Scattered Clouds 7000ft
1013 - LGIO 291850Z 28001KT 9999 FEW035 SCT070 16/13 Q1013
VFR 17°C / 13°C 360º 3kt 9700m - Few Clouds 3500ft
Scattered Clouds 7000ft
1013 - LGIO 291820Z 36003KT 9999 FEW035 SCT070 17/13 Q1013
VFR 18°C / 13°C 290º 5kt 9700m - Few Clouds 3500ft
Scattered Clouds 7000ft
1013 - LGIO 291750Z 29005KT 9999 FEW035 SCT070 18/13 Q1013
VFR 18°C / 13°C 300º variable 240º to 310º 3kt 9700m - Few Clouds 3500ft
Scattered Clouds 7000ft
1013 - LGIO 291720Z 30003KT 240V310 9999 FEW035 SCT070 18/13 Q1013
VFR 19°C / 13°C 300º variable 240º to 310º 4kt 9700m - Few Clouds 3500ft
Scattered Clouds 7000ft
1013 - LGIO 291650Z 30004KT 240V310 9999 FEW035 SCT070 19/13 Q1013
VFR 19°C / 13°C 310º variable 250º to 340º 6kt 9700m - Few Clouds 3500ft
Scattered Clouds 7000ft
1013 - LGIO 291620Z 31006KT 250V340 9999 FEW035 SCT070 19/13 Q1013
VFR 20°C / 12°C 260º variable 240º to 310º 6kt 9700m - Few Clouds 3500ft 1012 - LGIO 291550Z 26006KT 240V310 9999 FEW035 20/12 Q1012
21°C / 11°C 3kt - 1012 - LGIO 291520Z AUTO VRB03KT //// // ////// 21/11 Q1012 RE//
21°C / 11°C 3kt - 1012 - LGIO 291450Z AUTO VRB03KT //// // ////// 21/11 Q1012 RE//

10°C / 10°C

[Mehr]
Wind variable 0kt
Sichtweite
Wetter -
Wolken
Druck 1013
Änderung -
Roh LGIO 300220Z AUTO 00000KT //// // ////// 10/10 Q1013 RE//

10°C / 10°C

[Mehr]
Wind 1kt
Sichtweite
Wetter -
Wolken
Druck 1013
Änderung -
Roh LGIO 300150Z AUTO VRB01KT //// // ////// 10/10 Q1013 RE//

10°C / 10°C

[Mehr]
Wind 1kt
Sichtweite
Wetter -
Wolken
Druck 1013
Änderung -
Roh LGIO 300120Z AUTO VRB01KT //// // ////// 10/10 Q1013 RE//

10°C / 10°C

[Mehr]
Wind variable 0kt
Sichtweite
Wetter -
Wolken
Druck 1013
Änderung -
Roh LGIO 300050Z AUTO 00000KT //// // ////// 10/10 Q1013 RE//

11°C / 11°C

[Mehr]
Wind 2kt
Sichtweite
Wetter -
Wolken
Druck 1013
Änderung -
Roh LGIO 300020Z AUTO VRB02KT //// // ////// 11/11 Q1013 RE//

11°C / 11°C

[Mehr]
Wind 1kt
Sichtweite
Wetter -
Wolken
Druck 1013
Änderung -
Roh LGIO 292350Z AUTO VRB01KT //// // ////// 11/11 Q1013 RE//

11°C / 11°C

[Mehr]
Wind 2kt
Sichtweite
Wetter -
Wolken
Druck 1013
Änderung -
Roh LGIO 292320Z AUTO VRB02KT //// // ////// 11/11 Q1013 RE//

13°C / 13°C

[Mehr]
Wind 1kt
Sichtweite
Wetter -
Wolken
Druck 1013
Änderung -
Roh LGIO 292250Z AUTO VRB01KT //// // ////// 13/13 Q1013 RE//

12°C / 12°C

[Mehr]
Wind 1kt
Sichtweite
Wetter -
Wolken
Druck 1013
Änderung -
Roh LGIO 292220Z AUTO VRB01KT //// // ////// 12/12 Q1013 RE//

13°C / 13°C

[Mehr]
Wind 2kt
Sichtweite
Wetter -
Wolken
Druck 1013
Änderung -
Roh LGIO 292150Z AUTO VRB02KT //// // ////// 13/13 Q1013 RE//

13°C / 13°C

[Mehr]
Wind 1kt
Sichtweite
Wetter -
Wolken
Druck 1013
Änderung -
Roh LGIO 292120Z AUTO VRB01KT //// // ////// 13/13 Q1013 RE//

14°C / 12°C

[Mehr]
Wind 2kt
Sichtweite
Wetter -
Wolken
Druck 1013
Änderung -
Roh LGIO 292050Z AUTO VRB02KT //// // ////// 14/12 Q1013 RE//

14°C / 13°C

[Mehr]
Wind 2kt
Sichtweite
Wetter -
Wolken
Druck 1014
Änderung -
Roh LGIO 292020Z AUTO VRB02KT //// // ////// 14/13 Q1014 RE//

14°C / 12°C

[Mehr]
Wind 2kt
Sichtweite
Wetter -
Wolken
Druck 1014
Änderung -
Roh LGIO 291950Z AUTO VRB02KT //// // ////// 14/12 Q1014 RE//

15°C / 13°C

[Mehr]
Wind 2kt
Sichtweite
Wetter -
Wolken
Druck 1014
Änderung -
Roh LGIO 291920Z AUTO VRB02KT //// // ////// 15/13 Q1014 RE//

VFR

16°C / 13°C

[Mehr]
Wind 280º 1kt
Sichtweite 9700m
Wetter -
Wolken Few Clouds 3500ft
Scattered Clouds 7000ft
Druck 1013
Änderung -
Roh LGIO 291850Z 28001KT 9999 FEW035 SCT070 16/13 Q1013

VFR

17°C / 13°C

[Mehr]
Wind 360º 3kt
Sichtweite 9700m
Wetter -
Wolken Few Clouds 3500ft
Scattered Clouds 7000ft
Druck 1013
Änderung -
Roh LGIO 291820Z 36003KT 9999 FEW035 SCT070 17/13 Q1013

VFR

18°C / 13°C

[Mehr]
Wind 290º 5kt
Sichtweite 9700m
Wetter -
Wolken Few Clouds 3500ft
Scattered Clouds 7000ft
Druck 1013
Änderung -
Roh LGIO 291750Z 29005KT 9999 FEW035 SCT070 18/13 Q1013

VFR

18°C / 13°C

[Mehr]
Wind 300º variable 240º to 310º 3kt
Sichtweite 9700m
Wetter -
Wolken Few Clouds 3500ft
Scattered Clouds 7000ft
Druck 1013
Änderung -
Roh LGIO 291720Z 30003KT 240V310 9999 FEW035 SCT070 18/13 Q1013

VFR

19°C / 13°C

[Mehr]
Wind 300º variable 240º to 310º 4kt
Sichtweite 9700m
Wetter -
Wolken Few Clouds 3500ft
Scattered Clouds 7000ft
Druck 1013
Änderung -
Roh LGIO 291650Z 30004KT 240V310 9999 FEW035 SCT070 19/13 Q1013

VFR

19°C / 13°C

[Mehr]
Wind 310º variable 250º to 340º 6kt
Sichtweite 9700m
Wetter -
Wolken Few Clouds 3500ft
Scattered Clouds 7000ft
Druck 1013
Änderung -
Roh LGIO 291620Z 31006KT 250V340 9999 FEW035 SCT070 19/13 Q1013

VFR

20°C / 12°C

[Mehr]
Wind 260º variable 240º to 310º 6kt
Sichtweite 9700m
Wetter -
Wolken Few Clouds 3500ft
Druck 1012
Änderung -
Roh LGIO 291550Z 26006KT 240V310 9999 FEW035 20/12 Q1012

21°C / 11°C

[Mehr]
Wind 3kt
Sichtweite
Wetter -
Wolken
Druck 1012
Änderung -
Roh LGIO 291520Z AUTO VRB03KT //// // ////// 21/11 Q1012 RE//

21°C / 11°C

[Mehr]
Wind 3kt
Sichtweite
Wetter -
Wolken
Druck 1012
Änderung -
Roh LGIO 291450Z AUTO VRB03KT //// // ////// 21/11 Q1012 RE//

TAF für Ioannina (LGIO)

From till


From till Wind 3kt. Visibility 9700m. Few Clouds 3000ft.
With 40% probability, from till Visibility 5000m. Mist . Scattered Clouds 1000ft. Scattered Clouds 2000ft.
With 30% probability, from till Visibility 193.121m. Fog . Overcast 100ft.
Becoming from till
With 40% probability, Temporarly from till Visibility 5000m. Showers Rain . Few Clouds 1800ft. Scattered Clouds 2500ft. Broken Clouds 7000ft.

Roh: TAF LGIO 300200Z 3003/3012 VRB03KT 9999 FEW030 PROB40 3003/3006 5000 BR SCT010 SCT020 PROB30 3003/3005 0200 FG OVC001 BECMG 3007/3009 FEW025 SCT080 PROB40 TEMPO 3009/3012 5000 SHRA FEW018TCU SCT025 BKN070

Radar- und Niederschlags-Nowcast für Ioannina

Nieselregen
Leicht
Moderat
Stark
Sehr schwer
Hagel

Die Ortsmarkierung zeigt auf Ioannina. Diese Animation zeigt das Niederschlagsradar für den ausgewählten Zeitraum sowie eine 2h-Vorhersage. Orange Kreuze zeigen Blitze an. Daten bereitgestellt von nowcast.de (verfügbar in den USA, Europa, Australien). Nieselregen oder leichter Schneefall können für den Radar unsichtbar sein. Die Niederschlagsintensität ist farbcodiert und reicht von hellblau bis rot.

Aktuelle Satelliten- und Regenbilder für Ioannina, Griechenland

Die Standortmarkierung ist platziert auf Ioannina. [Mehr]

Das Echtzeit-Satellitenbild kombiniert sichtbares Licht während des Tages mit Infrarotstrahlung während der Nacht. Nachts ist das Bild nicht dunkel, da Infrarotstrahlung Temperaturunterschiede erkennen kann. Leider sind niedrige Wolken und Nebel nur schwer von den Bodentemperaturen zu unterscheiden und können daher nachts fast unsichtbar sein. Meteosat-Satellitenbilder für Europa werden alle 5 Minuten in Echtzeit aktualisiert. Die Bilder GOES-16 / GOES-17 (Nord- und Südamerika) und Himawari (Asien) werden alle 10 Minuten aktualisiert.

Niederschläge werden von Radar und Satelliten berechnet. Nachts sind die Niederschlagsberechnungen durch die Satelliten weniger genau als tagsüber.

© 2024 meteoblue, NOAA Satellites GOES-16 and EUMETSAT. Blitzdaten zur Verfügung gestellt von nowcast.

Zum Anfang
×
Hallo,
es scheint, als würden Sie einen Werbeblocker benutzen.

Werbung ist unerlässlich, um unsere kostenlose Website mit einzigartiger Detailtreue und Genauigkeit zu pflegen.

Bitte setzen Sie www.meteoblue.com auf die Whitelist Ihres Werbeblockers oder erwägen Sie den Kauf eines unserer Produkte:

Sie haben bereits ein Abonnement?
Dann melden Sie sich bitte an.